Wind_Speed
12 6 4 6 6 8 9 7 6 5 6 6 4 2 3 3 4 4 3 5 2 3 5 6 8 10 10 11 9 5 5 8 14 19 23 25 24 25 27 29 32 33 30 26 28 30 29 28 27 27 28 28 29 29 30 30 31 31 32 32 32 31 31 30 30 29 29 29 28 28 28 28 27 25 24 23 23 22 22 21 21 20 20 19 19 20
9 6 5 5 6 9 8 7 6 5 5 5 3 1 3 3 5 5 3 5 3 2 4 2 5 10 10 11 10 6 5 10 16 18 22 25 26 27 28 31 33 33 30 29 30 29 28 29 28 28 29 29 30 30 30 30 30 30 31 32 32 32 32 32 31 30 29 29 27 27 27 26 25 24 23 22 21 21 21 21 21 22 21 21 21 21
5 5 5 6 8 10 7 7 8 7 6 4 3 2 2 2 4 6 3 5 4 1 4 2 3 9 10 10 11 9 10 16 22 22 23 24 24 27 30 33 34 33 32 32 32 29 29 29 28 29 29 29 30 30 31 31 30 30 31 32 32 32 33 32 31 31 30 28 26 25 24 24 23 23 21 20 20 21 21 22 22 22 22 22 23 22
5 4 8 11 11 11 8 9 10 8 7 5 3 3 3 2 2 3 3 5 3 1 1 1 2 7 7 7 9 12 16 21 25 25 25 25 23 27 28 29 32 33 34 34 32 31 29 29 29 29 28 28 30 31 32 32 32 32 32 32 32 32 32 32 31 31 30 27 26 25 24 23 23 22 21 21 22 22 23 23 23 22 22 21 21 21
3 4 13 13 9 10 8 9 10 7 6 5 4 4 2 2 3 3 4 4 2 1 1 2 4 6 5 5 7 9 10 16 22 23 25 27 28 29 28 27 29 31 33 34 33 31 30 30 29 27 26 27 29 31 32 32 32 33 32 31 31 31 32 32 32 31 30 29 27 27 26 26 26 25 24 25 25 25 24 24 23 22 20 19 20 21
2 6 16 11 6 10 9 8 9 8 6 4 4 5 5 4 4 3 4 4 3 3 2 2 3 6 4 4 8 6 3 7 14 15 21 28 29 30 31 31 31 30 32 33 33 32 30 30 29 27 27 27 29 29 29 30 31 32 32 31 31 32 32 31 31 31 30 31 30 30 30 29 29 28 27 27 26 26 24 24 22 19 18 18 20 19
2 7 12 9 7 9 7 7 8 9 6 3 5 7 7 5 4 4 3 2 0 3 3 2 3 6 5 5 8 4 5 8 10 10 18 26 28 30 33 36 36 33 33 33 33 32 31 30 29 28 28 28 28 26 25 27 29 31 31 31 32 33 32 31 31 31 32 32 32 31 31 30 30 29 27 26 25 25 24 23 20 18 17 18 19 19
4 8 7 8 9 7 7 7 7 10 7 3 5 10 9 7 7 6 4 3 3 2 3 2 2 4 5 6 5 2 4 9 9 8 14 22 27 30 33 36 38 37 35 34 34 34 33 32 31 29 28 27 27 25 25 26 26 28 29 31 32 32 32 31 31 32 32 33 32 32 32 31 31 30 28 26 26 25 23 22 20 19 19 18 19 21
6 10 11 12 11 7 8 7 9 12 7 3 5 8 7 6 5 5 4 4 1 3 5 3 2 2 6 6 4 3 4 9 10 9 11 18 26 29 31 33 35 38 39 38 38 38 37 36 34 32 29 28 27 25 25 26 25 25 27 29 31 32 32 32 32 33 32 32 32 32 33 33 32 30 29 28 28 27 24 22 21 20 21 20 20 22
4 11 15 13 8 7 6 5 10 11 5 3 7 7 5 4 3 2 4 3 2 1 7 5 2 3 5 5 3 2 4 7 9 8 10 18 24 26 28 30 31 35 38 40 42 43 42 41 38 36 33 31 29 27 25 25 26 26 25 27 30 32 33 32 32 32 32 33 33 34 35 34 33 31 31 31 30 29 27 24 23 22 22 22 21 21
1 5 12 8 6 8 7 5 8 11 8 8 7 6 6 4 4 2 1 3 2 5 7 3 2 2 5 5 4 4 5 7 8 8 9 16 24 27 27 27 26 26 29 33 37 40 41 42 41 39 36 33 30 28 27 26 26 26 25 26 28 30 32 32 32 32 32 33 33 34 35 34 34 33 32 32 31 30 28 26 25 24 24 24 23 22
5 4 5 4 7 10 8 3 3 6 10 8 4 4 4 1 2 2 3 2 3 6 4 1 2 2 5 6 4 6 6 5 7 7 8 13 21 23 18 15 16 16 18 22 27 31 33 36 39 39 38 35 31 29 28 27 26 26 26 26 26 28 30 31 32 32 33 33 34 34 34 34 34 33 33 32 31 30 29 27 25 24 25 25 25 25
2 1 2 1 7 12 9 4 2 3 4 5 4 5 4 1 0 2 2 0 4 5 3 1 1 3 7 7 7 10 9 9 11 13 15 17 23 23 16 12 13 13 14 16 19 22 24 26 31 35 36 34 32 30 29 28 27 26 26 27 27 27 28 29 30 31 32 33 34 34 34 34 33 33 33 32 31 30 28 27 25 24 25 25 26 26
2 4 3 3 4 11 12 8 4 2 5 7 6 6 6 4 4 6 4 1 4 4 2 1 1 3 5 5 10 13 14 18 19 19 21 22 25 26 23 20 18 16 15 15 16 16 17 18 21 26 30 30 30 30 30 29 28 28 28 28 29 28 27 28 29 30 31 32 33 32 32 32 32 32 32 31 30 29 27 26 25 24 24 25 25 24
7 3 6 5 3 9 11 8 6 6 6 7 5 5 5 5 5 5 4 3 4 3 3 2 1 3 3 3 8 12 15 21 22 21 22 24 26 27 27 27 25 22 20 18 17 14 12 13 14 18 22 25 28 29 30 30 30 30 30 30 30 29 28 29 29 30 30 31 31 31 31 31 32 31 31 30 29 27 26 25 25 24 24 24 22 21
6 3 3 1 3 10 10 5 5 8 5 3 2 4 4 5 5 3 3 4 3 2 3 2 3 4 4 6 10 9 12 16 21 24 22 23 26 24 25 29 29 27 24 22 20 15 11 10 12 14 16 19 22 24 26 26 27 28 29 30 31 31 30 31 31 31 31 31 31 31 31 31 31 31 31 30 29 27 25 25 25 24 24 23 21 20
5 1 4 2 3 8 10 8 6 7 6 2 2 4 3 4 6 4 1 1 3 3 4 2 4 5 3 8 10 6 7 11 14 16 17 20 20 19 23 26 26 25 23 21 20 16 12 11 11 13 14 16 18 19 21 22 24 25 26 29 31 32 33 33 33 33 33 32 33 32 32 32 32 32 31 31 29 27 26 25 25 24 24 22 21 21
6 2 3 1 3 2 4 7 4 1 4 5 5 6 3 3 3 3 2 1 1 5 4 0 4 5 3 6 7 7 8 11 10 8 11 16 17 18 22 22 19 19 18 17 18 17 15 13 13 13 14 15 16 17 19 21 23 25 26 28 29 31 33 34 34 35 34 34 34 34 34 34 33 33 32 31 29 28 27 27 26 26 25 23 23 23
5 4 3 1 3 1 2 5 3 3 3 5 5 5 4 3 2 2 2 3 3 5 5 3 3 4 5 6 5 6 8 9 10 9 7 11 14 18 21 20 18 17 15 14 15 16 16 14 13 13 13 15 16 17 19 21 23 25 26 28 29 31 32 33 35 35 35 36 35 35 34 33 33 32 31 30 29 28 28 28 27 27 27 25 25 25
4 5 2 2 1 1 2 2 7 2 3 4 3 2 2 2 4 3 3 4 3 3 3 3 4 4 6 6 5 8 10 8 10 11 8 10 13 14 15 15 15 14 13 12 12 13 14 14 13 13 14 15 15 16 18 19 21 23 25 27 29 31 32 34 35 36 36 37 36 35 34 33 32 31 30 29 29 29 28 29 28 28 27 26 26 26
3 3 3 0 2 2 2 3 8 8 4 3 3 4 2 1 2 2 1 3 3 3 3 2 5 6 5 5 8 10 12 13 11 8 8 11 13 13 13 14 14 11 10 10 10 11 12 12 13 13 13 14 14 15 16 16 18 19 21 24 26 28 30 32 34 35 36 36 35 34 33 32 31 29 29 29 29 29 28 28 29 28 27 27 27 25
2 3 5 3 1 3 3 3 4 7 7 6 5 6 6 4 4 3 4 1 2 2 4 2 6 9 5 5 8 10 12 12 9 6 8 12 14 14 14 13 12 9 7 9 10 10 12 12 12 12 12 13 13 13 14 14 15 16 17 19 21 23 25 27 29 30 32 32 32 32 31 30 29 29 28 28 28 28 28 28 29 28 27 27 25 23
3 5 5 2 3 4 3 3 1 2 3 5 3 4 5 5 5 5 5 3 0 2 2 3 5 8 4 7 8 10 11 9 8 7 10 14 14 12 11 9 8 7 5 7 9 10 12 12 13 12 12 12 12 11 12 12 13 14 15 16 17 19 20 21 22 24 25 27 28 28 28 27 27 26 25 26 27 28 28 28 28 28 28 26 24 22
4 4 4 1 2 3 4 3 2 3 2 3 2 2 5 4 4 5 5 4 3 3 2 2 6 7 2 3 7 12 14 14 14 11 13 17 13 7 6 8 8 8 6 6 8 9 11 12 13 12 11 11 11 11 11 11 12 13 13 14 15 16 17 18 19 20 21 22 24 24 24 23 23 23 24 26 27 28 28 28 28 28 27 25 24 23
5 3 5 5 2 3 4 4 2 2 1 3 2 3 5 6 7 5 3 3 2 6 7 4 9 9 4 2 3 7 9 13 16 12 10 14 10 5 6 7 6 5 5 4 5 7 10 11 12 11 11 11 11 12 12 11 12 12 12 13 14 15 16 17 18 18 18 19 20 20 20 20 21 23 24 26 26 27 27 28 28 28 26 25 25 25
6 3 5 7 7 7 7 5 6 4 2 2 3 7 8 10 11 7 4 4 7 7 9 8 11 7 2 4 4 5 5 8 11 8 7 11 10 7 6 6 4 3 4 3 4 6 8 9 10 10 10 11 11 12 12 12 12 13 13 14 14 15 16 17 17 17 17 18 19 19 20 20 21 23 24 25 25 27 27 28 28 27 26 26 26 27
3 2 6 8 10 12 11 6 5 10 9 7 8 10 11 10 11 8 5 7 8 3 6 13 13 8 3 4 5 5 5 7 8 7 7 7 6 5 5 4 3 3 3 3 4 5 7 7 8 8 9 10 12 12 13 13 13 14 14 15 15 15 15 16 17 17 18 18 19 20 21 22 23 24 25 26 27 28 28 27 27 26 26 27 27 28
3 4 10 10 13 10 4 4 8 13 14 15 12 11 10 9 10 9 9 13 6 3 8 10 7 9 8 3 6 7 6 7 8 9 7 4 2 3 4 3 3 5 5 6 7 7 7 7 7 8 9 10 12 13 14 14 14 14 15 15 16 15 15 15 17 18 19 19 20 21 22 23 24 25 26 27 27 27 26 25 26 27 28 29 29 30
3 9 12 12 14 5 5 4 9 12 10 9 11 13 11 12 13 14 18 18 9 6 15 8 8 11 10 6 7 8 8 11 9 7 6 5 6 7 7 6 6 7 8 9 11 12 11 10 9 9 10 11 12 14 15 16 16 16 16 16 16 16 15 15 16 18 20 21 22 23 24 25 26 26 27 27 26 25 25 26 27 28 29 30 31 31
3 7 6 9 10 2 6 2 6 9 7 5 9 13 12 13 17 19 23 19 12 15 19 7 3 9 6 6 9 12 14 14 9 9 11 13 14 12 11 11 10 11 12 14 16 16 15 14 12 12 13 14 14 15 16 16 16 16 16 16 16 16 16 16 17 17 19 21 21 22 23 23 25 26 27 26 25 25 26 27 28 30 31 32 31 31
2 3 2 5 5 3 4 2 4 5 7 6 8 10 12 16 19 20 19 12 9 16 17 7 10 12 6 8 13 16 16 12 11 16 18 17 17 15 14 15 16 19 22 21 20 19 18 18 16 16 16 15 16 16 17 17 16 17 17 17 17 17 17 17 18 18 20 21 22 22 22 23 24 25 25 25 26 27 27 29 30 31 32 32 32 31
3 2 3 6 5 3 2 5 6 6 6 3 5 10 16 18 16 14 13 10 11 16 12 8 12 9 6 9 14 14 13 13 16 20 21 21 20 18 19 22 24 26 25 22 20 18 18 18 19 20 19 17 17 17 17 18 17 17 17 17 18 18 18 19 20 20 21 22 22 23 23 24 24 24 25 26 27 28 29 30 32 32 33 33 32 32
5 5 3 5 7 3 2 5 7 6 6 1 10 15 19 16 11 9 10 12 15 13 9 11 13 7 5 7 8 7 9 14 20 25 27 29 27 24 25 26 26 26 22 19 18 18 18 20 20 21 22 21 21 20 19 18 17 17 16 16 18 19 19 21 21 21 22 22 22 23 24 25 26 26 27 28 28 29 31 32 33 34 33 34 33 32
7 7 4 4 6 3 2 6 7 5 5 11 12 14 16 15 14 14 15 17 17 14 12 14 11 4 4 6 8 10 14 19 25 30 31 29 27 27 27 26 24 23 21 21 22 22 22 23 23 23 23 22 22 21 20 19 18 18 17 17 18 20 21 22 22 23 23 23 23 24 25 26 28 28 29 30 30 31 33 34 35 35 35 35 34 33
12 9 5 3 4 3 4 6 6 6 13 12 5 6 12 17 20 21 20 19 17 16 16 15 12 7 9 13 18 20 22 24 26 27 26 25 26 27 27 27 25 24 25 26 26 26 25 24 24 24 23 22 21 20 20 20 19 20 20 19 19 20 21 22 24 25 25 26 26 27 28 29 30 30 31 32 33 34 35 36 36 37 36 36 35 34
14 11 4 3 4 3 4 7 8 8 7 7 5 1 6 11 13 14 15 14 11 11 13 16 18 15 14 19 23 21 18 17 18 23 25 23 25 28 30 31 30 28 29 30 29 28 26 25 25 25 24 22 21 21 22 21 20 20 21 20 20 20 21 23 25 26 27 28 29 29 30 31 32 33 33 34 35 36 38 38 38 38 38 37 35 34
12 11 6 4 2 3 5 5 4 4 6 8 8 4 7 9 9 10 9 11 11 13 15 16 16 15 16 23 26 19 12 8 12 21 26 25 29 33 33 32 33 32 33 32 31 30 28 26 26 26 25 24 23 23 24 24 23 21 20 21 22 22 23 24 26 27 28 30 31 31 32 33 34 34 35 36 38 39 40 40 40 40 39 38 37 35
6 8 9 8 2 3 6 2 2 3 8 12 7 6 11 14 14 12 7 8 10 17 22 19 14 14 16 19 18 12 7 6 8 15 26 33 36 36 33 33 33 33 32 32 31 30 29 27 27 27 27 28 27 26 26 26 24 22 21 21 22 23 24 25 25 27 29 31 32 33 34 35 35 36 37 38 40 40 41 41 41 40 39 38 37 35
5 3 6 7 3 3 6 5 6 8 11 9 6 7 15 23 21 14 3 8 9 15 25 22 14 14 17 17 14 12 7 5 7 14 28 35 31 26 24 25 23 22 23 24 24 25 24 24 25 26 27 27 26 26 25 25 24 22 21 21 21 24 25 24 24 26 28 31 32 33 34 35 36 37 38 39 40 41 42 42 41 40 39 37 36 35
6 2 3 6 4 6 7 5 4 5 8 8 8 11 21 29 25 14 0 10 8 16 25 25 17 19 25 22 15 12 8 9 11 19 28 28 21 16 15 15 14 14 15 16 17 18 18 18 19 20 21 21 21 21 21 22 21 20 19 19 21 23 22 22 23 25 27 29 31 33 34 35 36 37 38 39 41 42 42 42 41 40 39 38 37 35
4 2 3 7 7 7 8 7 4 5 7 7 8 16 28 27 16 8 8 8 11 17 23 25 23 25 26 21 17 14 17 23 23 25 24 19 16 14 13 13 13 12 11 12 13 14 14 14 14 13 14 14 14 15 16 17 17 17 16 17 18 18 18 20 24 26 27 28 30 33 34 35 36 37 38 40 41 42 42 42 42 41 40 39 38 36
7 4 3 6 7 5 5 4 2 6 9 10 11 18 26 18 5 9 8 11 18 17 16 18 19 20 20 21 22 21 21 21 20 18 15 14 15 15 15 15 14 13 12 13 13 12 12 11 10 9 8 8 8 9 9 10 12 12 13 14 15 15 18 22 24 26 28 29 31 32 34 35 36 37 39 41 42 43 44 43 43 42 41 39 38 36
10 8 6 6 6 4 2 4 4 8 8 21 21 9 10 7 6 11 14 13 16 17 15 16 16 14 16 18 20 19 16 13 12 11 10 11 12 13 14 14 13 13 13 12 11 12 11 9 7 5 5 5 6 7 8 10 11 12 13 14 14 15 18 21 23 26 28 29 31 32 34 35 36 38 40 42 44 45 45 44 43 42 40 39 38 36
7 9 9 7 7 7 6 9 7 5 9 32 29 11 12 10 10 19 19 11 13 16 16 17 16 13 13 13 13 15 14 12 11 10 9 9 9 9 11 11 11 11 10 10 10 10 8 6 4 4 6 8 10 12 13 13 14 15 15 15 14 16 17 19 22 25 27 28 30 31 33 35 36 39 41 43 45 45 45 44 43 42 41 39 38 36
9 8 6 5 6 7 5 8 5 1 14 33 25 14 23 20 11 17 20 14 15 19 17 17 16 12 11 11 12 14 14 11 10 10 9 8 8 9 11 12 11 11 11 10 9 7 5 4 4 6 9 12 14 16 17 18 19 19 18 17 16 17 17 19 21 23 25 27 29 30 32 34 36 39 41 43 45 46 46 45 44 43 42 40 39 38
4 4 4 3 2 3 4 6 3 2 12 25 15 12 29 30 14 14 19 16 16 18 16 14 14 12 12 14 15 15 14 12 11 11 10 9 10 11 12 13 13 12 11 9 8 5 4 4 7 9 11 14 16 19 21 22 22 22 20 19 18 17 17 18 20 21 23 26 27 29 31 33 36 39 41 44 46 46 46 46 45 44 43 42 40 39
2 4 4 2 4 5 6 7 6 4 12 23 17 14 27 33 23 17 18 16 16 17 16 16 15 14 15 16 17 17 15 13 13 13 13 13 13 13 14 15 14 13 12 10 8 6 5 6 8 10 12 14 17 20 21 22 21 21 20 19 18 18 18 19 19 20 22 24 25 28 30 32 36 39 42 45 47 47 47 46 45 44 44 43 41 40
5 8 6 3 6 7 5 5 9 11 18 28 25 18 23 31 30 24 19 18 19 18 18 17 16 16 17 17 18 18 17 16 16 16 15 15 15 15 15 15 14 13 13 11 9 8 7 7 9 11 13 15 17 20 21 21 20 19 19 18 18 18 18 19 19 20 21 23 25 27 29 32 35 39 42 46 48 48 48 47 46 46 44 43 42 41
9 11 9 6 6 5 4 3 7 8 10 21 26 22 21 26 31 31 27 24 22 20 19 18 17 18 18 17 18 18 18 18 18 17 17 16 15 14 12 12 13 14 12 11 10 8 8 8 10 11 13 14 16 19 21 20 18 17 16 16 16 17 17 18 19 20 21 23 24 26 28 31 34 38 42 46 48 49 49 48 47 46 44 42 41 40
10 8 6 5 7 8 7 7 12 8 3 12 23 26 25 25 29 32 33 30 27 24 23 21 20 19 18 18 18 17 17 17 16 15 15 14 13 13 13 14 14 13 12 11 10 9 9 9 10 11 11 12 14 17 18 17 16 14 14 14 14 15 16 17 19 20 21 23 24 26 27 30 33 37 42 46 49 50 49 49 47 46 44 42 41 40
10 10 10 9 9 12 10 16 22 15 7 15 28 33 31 28 28 31 33 33 32 30 27 24 22 20 18 17 16 15 14 14 13 13 13 13 14 15 15 14 14 13 12 11 10 10 9 9 9 10 10 11 13 15 15 14 13 12 12 12 12 14 15 16 18 20 21 22 23 25 27 29 32 36 40 45 49 50 50 50 48 47 45 44 42 41
Wind_Direction
157 159 189 193 181 173 183 176 157 152 143 140 132 157 240 267 275 268 276 313 347 162 231 214 222 250 251 261 259 236 259 254 246 246 243 243 242 242 243 242 242 243 246 248 245 242 240 240 240 242 243 243 243 241 240 239 237 236 235 235 236 236 237 238 238 237 235 235 234 235 235 236 238 239 240 241 242 244 246 248 251 253 256 260 263 266
166 189 196 176 166 162 170 163 150 151 132 124 130 184 268 248 260 273 278 319 346 177 267 263 233 259 256 263 266 236 244 255 247 245 248 248 246 246 246 246 246 246 248 248 248 246 243 241 240 241 243 243 244 242 240 239 237 236 235 234 235 236 236 237 238 237 236 235 235 236 238 240 244 245 246 248 249 252 255 256 257 256 256 258 260 262
180 210 186 161 152 146 153 159 168 188 176 159 137 134 268 261 277 289 301 333 359 171 285 346 227 261 262 264 266 238 231 253 256 254 257 258 255 253 251 251 250 249 249 248 248 249 246 245 243 242 244 244 245 244 242 241 239 237 235 234 234 234 235 236 237 236 236 237 238 242 246 249 252 254 254 256 258 260 259 259 259 257 257 256 256 257
185 217 179 162 148 142 155 166 170 196 202 194 156 145 244 271 316 306 331 343 356 117 264 328 270 272 269 272 275 249 236 250 259 258 260 261 260 261 260 258 257 254 251 250 250 251 250 250 247 245 245 246 245 243 242 240 238 237 236 235 234 234 235 235 235 235 236 238 241 245 250 253 256 256 256 255 255 255 254 256 256 256 256 254 253 254
174 178 162 152 147 149 156 171 172 187 207 209 186 165 195 242 239 266 320 317 311 4 53 11 317 285 266 267 272 260 239 246 255 256 257 256 256 261 262 261 260 256 253 252 251 252 252 252 251 250 249 247 246 244 243 240 238 238 237 237 236 236 236 236 235 236 236 237 239 242 246 248 250 250 249 248 248 248 249 251 253 255 257 256 252 250
194 166 155 144 153 158 156 181 183 179 193 222 207 175 183 229 255 287 324 341 6 338 340 28 296 273 295 278 252 265 303 260 256 256 255 254 254 254 256 258 259 257 254 252 252 251 252 252 252 252 251 248 246 247 246 244 242 241 240 239 239 238 238 238 237 237 236 237 238 240 242 243 244 245 244 244 246 247 248 250 253 258 261 258 253 248
191 162 152 145 158 160 168 194 191 173 172 225 204 170 184 223 256 270 284 321 357 271 301 61 212 260 311 286 247 269 325 285 269 268 260 257 255 251 252 254 256 256 254 252 252 250 248 248 247 250 252 251 250 250 250 248 245 243 241 240 240 240 240 239 239 238 237 237 238 240 242 244 245 246 247 248 251 252 253 255 258 261 261 256 254 247
144 144 150 154 156 165 188 197 191 173 166 217 180 156 174 205 231 238 225 223 241 276 315 28 160 258 281 259 259 322 315 292 283 276 265 258 255 253 252 252 252 253 253 252 251 249 248 246 247 251 253 252 253 253 251 251 249 247 243 241 241 241 241 240 240 240 239 238 239 240 242 245 246 247 250 253 256 257 258 258 258 258 258 253 252 249
148 164 179 169 170 188 190 179 171 167 173 222 151 136 163 181 201 203 175 206 281 7 294 280 141 241 263 269 313 352 269 275 278 271 264 258 254 254 254 253 252 251 251 251 251 250 251 250 251 256 257 253 252 252 249 250 251 251 247 244 242 241 241 240 241 242 242 241 241 242 244 246 247 249 251 253 256 258 257 256 255 253 254 252 249 250
173 191 185 168 178 192 164 153 164 165 177 178 125 95 87 87 84 122 152 162 75 315 251 234 181 236 263 274 304 312 245 251 265 265 258 259 257 254 255 256 256 255 254 253 253 254 255 255 255 257 257 252 250 249 249 249 249 248 248 245 243 241 241 241 242 242 243 243 243 244 245 246 248 248 250 252 254 256 256 254 253 250 249 250 248 249
353 183 181 171 193 183 150 142 164 165 154 132 109 80 69 56 42 45 67 94 105 259 255 225 169 217 271 272 228 217 223 216 236 257 261 262 260 257 257 259 261 261 260 258 257 257 257 257 255 254 251 248 248 248 246 248 248 246 246 245 244 241 241 242 242 243 244 244 244 245 246 246 247 247 248 250 252 254 255 253 252 251 249 249 249 249
24 109 174 192 186 165 136 122 142 151 146 128 109 108 105 41 24 21 3 55 196 250 287 307 108 152 239 258 231 238 255 225 217 240 257 260 261 262 260 259 263 263 263 261 259 260 258 254 250 247 245 245 246 246 245 247 249 247 245 244 244 242 240 240 241 243 243 244 245 245 246 247 247 248 248 249 251 253 255 254 253 252 250 250 248 249
36 185 246 175 180 170 150 142 74 67 140 146 135 132 131 106 41 236 261 268 233 250 298 294 125 203 239 252 256 264 275 260 237 233 244 254 263 271 270 263 267 267 269 272 268 264 260 254 246 242 242 242 243 243 244 247 248 247 244 242 244 242 241 241 241 242 242 243 244 244 246 247 247 248 248 250 252 253 254 253 251 250 250 250 249 251
187 291 255 151 188 188 171 165 169 175 176 172 161 157 160 151 170 209 214 249 255 257 274 247 201 262 274 267 243 243 251 254 253 251 254 259 266 273 274 271 271 268 271 283 286 276 266 259 249 241 240 239 241 242 244 246 247 246 244 242 243 243 242 242 241 241 241 242 243 244 246 247 247 248 249 250 251 251 251 249 249 249 249 249 250 252
168 235 211 178 185 184 177 178 170 144 158 182 163 145 167 169 174 194 195 211 237 260 280 272 223 214 213 259 242 239 255 263 266 267 266 266 268 272 275 276 273 268 270 277 286 290 277 262 251 242 238 237 239 241 243 245 246 246 244 243 243 243 242 243 242 242 242 242 243 244 246 247 247 248 248 250 250 250 248 246 246 248 249 249 249 250
167 230 252 198 146 163 168 176 138 118 143 213 131 129 196 188 146 125 180 186 172 240 259 227 232 216 208 281 277 258 267 272 267 267 267 265 267 271 274 276 274 273 273 271 273 283 282 262 247 238 235 234 236 238 241 243 245 245 245 244 243 243 243 243 243 243 243 244 245 245 246 247 247 247 247 247 247 246 245 244 245 247 249 249 247 244
163 239 327 24 119 163 170 169 161 160 172 161 144 184 200 150 124 115 201 63 85 224 251 199 252 289 312 291 292 290 282 277 268 266 267 268 270 270 271 273 275 275 275 268 261 266 270 260 248 239 236 237 238 240 243 245 247 248 248 247 245 244 243 243 244 244 245 245 246 246 247 247 246 246 245 244 243 243 242 242 244 245 247 246 244 243
152 112 327 80 127 194 166 146 140 110 133 137 185 196 140 97 108 118 179 350 96 228 266 326 246 284 292 269 309 332 286 272 274 268 268 272 269 263 267 271 272 275 278 268 253 249 254 252 248 246 245 247 249 250 252 251 252 251 250 250 249 247 245 245 245 246 246 247 247 248 247 246 246 245 244 244 242 241 240 240 241 241 241 240 241 243
135 104 309 288 140 181 60 122 143 8 55 136 178 183 143 150 195 135 168 191 184 231 273 311 280 266 223 231 306 309 263 259 282 289 280 271 261 257 263 268 272 278 283 276 255 243 245 246 248 251 254 257 258 258 257 255 255 253 251 250 249 249 247 246 246 246 247 248 248 249 249 247 247 245 244 242 240 238 237 238 239 239 237 236 236 241
133 119 249 294 135 156 56 145 186 193 33 72 108 165 162 155 176 174 164 168 175 219 254 304 313 262 224 209 216 255 261 255 264 273 272 270 272 272 272 278 287 286 278 275 262 245 245 247 251 256 260 263 262 260 260 258 257 255 253 251 249 248 247 246 246 246 246 247 247 248 248 247 245 244 242 239 237 236 235 236 237 237 237 236 236 240
123 111 161 201 353 165 178 211 187 172 158 140 146 176 192 135 134 153 156 135 137 177 207 281 287 262 243 205 191 220 252 255 253 260 264 273 288 295 297 302 304 292 267 259 256 247 246 249 255 260 261 261 259 259 259 258 258 258 256 255 252 249 248 247 247 247 246 246 246 246 246 245 244 241 239 236 234 234 233 233 234 235 235 235 237 241
129 111 134 133 138 176 222 254 188 177 178 169 175 187 178 148 122 167 230 250 89 174 181 190 270 268 241 200 202 210 230 250 272 293 276 278 291 299 307 310 304 296 268 245 239 239 242 246 251 254 254 254 255 256 259 260 262 261 259 257 255 253 251 249 249 249 249 248 246 245 243 242 241 239 236 232 229 229 230 230 232 233 233 234 237 240
112 106 113 133 194 200 253 295 227 224 163 133 173 191 156 147 140 163 220 245 153 234 143 111 279 275 216 179 207 227 238 261 289 292 281 289 301 307 315 319 314 317 298 252 238 236 240 246 250 252 253 256 260 261 262 263 262 262 261 259 257 256 253 251 249 247 246 245 244 242 240 238 236 234 230 226 224 225 227 228 229 230 231 234 238 234
139 112 100 71 306 303 309 337 14 358 55 123 217 153 139 166 148 143 186 184 185 226 147 100 272 269 240 171 209 237 254 270 275 276 282 291 302 317 330 341 335 325 313 280 257 247 248 252 255 259 261 261 263 263 262 262 261 262 264 262 259 257 253 250 247 244 241 239 238 238 236 231 227 225 223 221 222 223 224 226 227 228 232 235 233 223
172 141 116 115 64 1 337 332 309 274 207 192 192 143 151 142 116 119 140 125 226 221 165 181 255 253 272 300 248 255 270 274 272 275 277 278 287 312 336 347 342 325 324 298 264 255 255 259 263 266 266 264 264 264 266 268 268 268 267 264 260 256 251 248 245 241 238 236 235 233 230 226 221 220 221 221 222 223 224 225 227 230 234 231 221 210
164 154 149 148 148 173 193 216 221 195 165 194 170 172 179 155 148 160 131 154 231 217 162 198 242 242 294 323 321 325 308 281 277 275 262 262 273 301 328 337 332 337 347 317 271 259 257 263 271 272 272 269 265 265 268 271 272 271 269 265 261 256 252 248 244 240 236 233 232 230 225 223 222 221 222 222 222 223 225 228 230 232 229 219 208 202
124 146 183 181 184 192 190 185 144 123 143 196 188 177 182 172 168 158 131 197 219 181 186 222 236 240 276 317 312 306 282 269 270 258 250 260 281 312 329 327 329 358 358 333 311 287 274 279 285 286 285 279 272 268 266 265 265 265 264 263 261 257 253 248 243 239 235 231 230 228 224 221 221 221 221 223 224 226 228 230 229 224 214 205 200 199
85 193 195 202 210 205 167 133 132 139 173 195 178 170 178 173 170 167 197 215 180 117 238 228 209 233 241 248 268 271 263 260 260 259 266 274 286 318 322 318 338 343 331 327 324 312 301 295 290 291 291 285 279 274 268 265 263 262 261 260 258 257 254 249 243 237 233 230 227 226 225 222 221 222 224 226 227 227 227 223 215 208 202 199 198 198
150 202 197 199 209 204 68 125 155 157 180 178 164 178 177 169 178 190 215 220 177 198 243 210 165 226 231 208 236 245 242 249 260 278 286 266 260 288 302 294 298 300 296 301 303 301 301 296 288 286 285 283 279 273 268 266 265 264 264 262 259 258 254 250 244 236 231 228 225 224 224 223 222 224 226 226 225 221 215 209 203 199 198 197 196 198
161 198 193 181 189 69 46 139 160 153 154 141 170 184 173 178 194 202 218 222 203 227 245 227 217 257 231 205 237 244 248 259 276 280 269 264 270 283 289 283 281 282 288 295 294 292 295 295 291 283 277 276 278 278 276 272 269 268 266 264 261 257 253 249 246 240 234 231 227 224 223 222 221 222 223 220 216 211 205 202 200 198 197 196 196 198
147 184 78 118 143 24 26 90 88 123 144 155 187 191 185 196 206 213 223 220 212 241 252 269 288 275 220 208 240 249 258 274 279 269 266 270 275 279 282 286 291 292 294 296 292 290 292 292 289 284 278 276 276 280 283 281 276 271 266 263 258 253 249 246 243 240 236 233 230 226 223 222 219 218 217 213 208 204 202 201 200 198 197 197 198 199
110 146 56 97 145 259 322 100 88 78 90 121 214 210 202 205 208 216 222 205 208 233 241 252 267 259 195 210 234 244 257 264 264 266 270 273 273 273 276 280 284 285 285 286 287 289 289 286 284 281 279 278 277 280 286 286 283 279 273 267 260 252 246 242 238 236 235 232 229 226 223 220 217 214 211 206 203 202 202 202 200 199 199 200 200 201
122 131 115 129 162 234 327 119 119 87 75 234 237 216 204 203 204 214 229 222 217 221 221 231 241 228 171 197 215 227 238 241 248 255 260 265 266 266 268 270 273 273 272 275 278 279 282 283 284 282 280 280 282 283 286 286 286 285 279 270 262 254 247 242 237 234 232 229 227 223 219 216 213 210 207 204 204 204 203 203 202 202 203 203 203 203
151 151 153 151 159 193 191 133 108 101 197 228 226 199 187 187 190 205 223 222 214 211 217 232 239 210 146 174 195 210 222 231 242 249 253 259 262 264 265 263 263 263 263 267 270 272 278 282 284 283 281 281 282 282 282 282 282 280 273 264 258 253 248 243 237 234 230 226 223 219 215 213 211 209 208 207 207 207 205 205 205 204 205 205 205 204
170 169 162 144 137 154 159 132 126 197 224 233 230 170 177 185 191 205 220 222 213 213 224 239 246 213 186 204 213 219 227 236 245 251 255 257 258 261 262 259 258 259 261 267 271 275 280 282 282 282 279 279 282 283 284 284 284 280 273 267 260 253 249 245 239 234 230 225 222 219 216 215 213 212 212 211 210 209 207 207 206 205 206 206 206 207
172 168 152 125 127 132 148 163 186 220 253 275 300 272 187 187 189 203 230 243 227 211 219 232 238 229 218 223 225 226 234 244 253 255 253 253 255 256 257 259 261 262 265 271 276 278 281 281 281 280 276 277 281 284 287 288 286 283 278 272 266 257 250 246 241 236 232 227 225 223 221 220 218 217 216 214 212 211 209 208 207 207 207 206 206 207
172 161 147 145 153 137 148 188 234 308 309 269 253 220 175 172 170 178 221 252 226 206 214 224 232 234 231 234 235 235 243 265 273 260 251 250 254 254 255 260 264 267 271 274 276 276 276 276 275 275 275 276 278 280 285 288 286 284 280 275 270 262 253 247 243 240 236 233 230 228 226 224 223 221 219 217 215 213 211 209 208 208 208 207 207 208
162 160 158 166 179 102 118 160 256 254 254 244 221 165 163 167 162 156 186 252 229 205 209 217 224 226 229 238 234 219 223 260 271 260 254 255 256 257 259 264 268 272 274 275 276 275 275 274 271 271 272 273 276 280 283 287 287 285 281 275 271 266 259 253 249 245 241 238 235 232 230 228 226 225 222 219 217 214 212 210 209 208 209 209 210 210
109 108 140 145 145 138 146 172 190 207 243 236 185 162 166 162 149 125 127 264 237 196 203 212 215 216 225 230 205 169 173 230 243 259 263 264 264 264 268 270 271 273 273 275 276 276 276 276 272 272 273 273 277 281 282 285 288 286 284 279 271 266 263 261 260 254 248 244 241 238 235 232 229 227 224 221 218 215 213 211 210 209 209 209 211 213
120 109 127 140 165 177 172 186 201 228 246 221 190 180 164 153 137 113 203 259 209 176 196 204 203 211 221 216 186 159 180 215 237 265 273 276 275 268 270 272 271 272 271 271 274 275 277 280 277 276 277 276 276 277 277 281 284 285 287 281 270 267 267 267 267 262 256 251 247 243 239 235 232 229 225 222 219 216 214 213 211 210 210 210 212 213
133 174 176 175 187 184 182 200 236 260 238 217 198 174 154 138 128 154 220 218 159 165 192 198 202 215 217 199 176 186 221 233 247 266 275 281 279 267 263 268 270 275 275 270 273 277 280 283 283 281 280 277 276 277 276 277 279 282 283 278 274 276 275 269 265 262 259 256 251 247 244 239 236 232 227 223 221 218 215 214 213 213 212 212 212 213
171 183 184 183 182 176 186 197 248 275 231 181 166 169 156 142 175 214 181 136 138 155 176 184 197 214 211 199 201 215 235 246 252 259 262 266 271 269 268 271 272 273 273 272 275 278 280 287 290 289 289 288 285 285 285 285 288 289 286 286 291 291 279 269 265 262 259 256 252 249 245 240 236 231 226 223 220 218 216 214 213 213 214 213 214 214
173 165 178 193 172 142 171 173 188 271 212 145 135 161 189 185 185 155 126 118 141 151 155 167 183 194 196 205 217 225 237 243 237 237 239 243 257 265 269 273 273 269 267 267 268 271 277 285 293 305 325 334 334 330 325 319 315 310 304 306 308 296 282 276 271 266 262 258 254 250 246 241 236 230 225 222 219 217 216 215 214 213 214 215 215 215
182 174 181 201 189 170 188 189 192 285 167 150 148 177 211 189 141 139 142 145 156 157 160 169 176 181 190 206 219 220 223 227 225 229 230 230 242 255 261 267 267 259 252 244 243 252 259 264 285 328 340 341 339 334 328 322 317 313 311 310 304 292 286 282 276 270 266 262 258 253 248 243 237 231 226 222 220 218 217 217 216 215 215 216 217 218
208 194 166 179 195 185 194 199 199 355 168 168 167 180 187 182 154 153 165 171 172 176 176 174 178 189 204 216 220 214 214 222 227 228 228 231 244 252 256 261 260 253 246 236 228 229 231 248 296 324 330 335 334 329 325 321 315 312 311 307 299 290 286 281 276 274 270 266 261 256 251 245 239 233 228 224 222 220 219 218 218 218 217 217 217 219
212 178 125 116 200 243 272 222 194 52 178 182 178 176 185 187 179 169 180 190 192 193 195 196 203 212 216 222 225 220 220 228 232 232 235 242 252 255 256 259 259 252 241 224 214 224 251 288 314 324 328 331 330 326 321 314 308 306 305 302 296 292 287 280 276 274 271 267 263 258 252 246 240 234 229 225 223 222 221 221 221 220 220 219 219 220
257 176 146 119 169 201 235 213 174 153 189 189 186 185 190 194 193 186 192 203 207 208 214 219 221 220 219 223 228 228 231 235 235 238 242 246 253 260 262 263 258 242 222 210 219 247 277 302 315 322 325 326 324 320 312 303 299 298 296 292 290 288 284 279 274 271 269 267 264 258 252 247 241 235 230 226 223 221 221 222 222 223 223 222 221 221
196 175 172 177 174 182 215 201 167 173 190 193 193 194 196 200 202 200 201 209 213 216 219 220 220 222 224 226 226 228 234 237 237 242 247 250 256 263 264 259 242 219 207 213 232 253 274 296 311 317 320 321 318 312 303 297 296 293 288 286 284 282 282 281 276 272 269 266 263 259 253 248 242 237 232 228 225 223 222 222 222 224 225 226 226 226
140 158 179 177 165 194 259 217 154 156 197 206 206 204 201 204 208 209 210 213 216 218 220 220 223 227 229 228 228 231 236 239 241 244 247 252 259 258 248 232 214 207 215 230 243 256 271 289 304 310 313 314 311 304 298 296 296 294 290 287 283 281 281 280 277 274 269 265 262 259 254 248 243 238 233 229 226 224 224 223 224 225 226 227 228 229
140 163 177 148 168 213 234 180 158 151 195 214 209 206 203 204 210 214 215 216 218 221 224 225 228 230 231 233 235 238 241 242 243 244 243 245 246 236 223 214 212 220 233 242 248 260 271 281 292 297 300 302 299 294 292 293 295 297 295 290 284 282 281 280 277 274 270 266 263 259 255 250 245 239 234 230 227 225 224 223 224 224 225 226 227 228
176 173 165 161 196 217 197 170 173 180 189 198 201 202 201 203 210 216 218 219 222 224 226 228 230 232 235 240 243 244 245 242 238 235 230 225 225 225 223 223 226 233 241 245 249 255 259 264 270 274 277 281 281 283 286 291 297 298 294 291 288 284 283 281 278 275 271 269 266 262 258 253 248 242 236 231 228 226 225 224 223 223 224 225 226 226
Height
1533 1538 1539 1539 1540 1542 1542 1543 1545 1548 1548 1551 1554 1556 1558 1558 1554 1549 1547 1547 1546 1546 1545 1545 1544 1541 1539 1537 1537 1539 1540 1539 1540 1539 1539 1538 1538 1539 1539 1539 1539 1539 1540 1542 1544 1545 1546 1547 1548 1550 1551 1552 1553 1554 1555 1556 1557 1558 1560 1561 1562 1564 1566 1568 1569 1570 1571 1572 1573 1574 1574 1575 1576 1578 1579 1580 1581 1582 1583 1584 1585 1585 1586 1587 1588 1588
1533 1537 1538 1536 1537 1539 1541 1543 1545 1546 1548 1550 1554 1557 1558 1559 1556 1549 1548 1548 1547 1547 1545 1546 1546 1542 1540 1537 1536 1538 1539 1537 1537 1537 1536 1536 1536 1537 1536 1537 1536 1537 1539 1540 1540 1542 1544 1545 1546 1547 1548 1549 1550 1551 1552 1553 1554 1556 1557 1558 1559 1562 1563 1564 1566 1567 1568 1569 1571 1572 1573 1574 1575 1576 1577 1578 1579 1580 1581 1582 1582 1583 1584 1585 1586 1586
1536 1537 1537 1536 1536 1538 1541 1543 1544 1546 1547 1550 1554 1557 1559 1559 1556 1550 1549 1550 1549 1548 1546 1547 1546 1541 1538 1536 1535 1537 1537 1535 1534 1534 1533 1533 1534 1534 1534 1533 1534 1535 1536 1537 1538 1540 1541 1542 1543 1544 1545 1546 1547 1548 1549 1550 1552 1553 1554 1555 1557 1558 1560 1561 1563 1564 1565 1567 1569 1570 1571 1573 1574 1575 1576 1577 1577 1578 1579 1579 1580 1581 1582 1582 1583 1584
1537 1535 1533 1535 1535 1537 1541 1542 1544 1546 1547 1549 1552 1557 1559 1559 1557 1552 1550 1551 1551 1550 1548 1547 1546 1540 1536 1535 1532 1532 1533 1532 1531 1532 1531 1532 1532 1531 1531 1531 1532 1533 1533 1534 1535 1537 1538 1539 1540 1541 1542 1543 1544 1545 1545 1547 1549 1550 1551 1552 1554 1555 1557 1558 1560 1561 1563 1565 1567 1568 1570 1571 1572 1572 1573 1574 1575 1575 1576 1577 1577 1578 1579 1580 1580 1581
1531 1530 1530 1533 1535 1536 1541 1542 1543 1547 1549 1549 1551 1555 1557 1557 1558 1556 1553 1551 1549 1550 1549 1547 1547 1539 1533 1533 1531 1528 1531 1530 1528 1529 1528 1528 1529 1528 1528 1529 1529 1529 1529 1531 1532 1534 1536 1536 1537 1538 1539 1540 1540 1541 1542 1544 1545 1546 1548 1550 1552 1553 1554 1556 1557 1559 1561 1562 1564 1565 1566 1567 1568 1569 1570 1570 1571 1572 1573 1574 1575 1576 1577 1578 1578 1579
1529 1529 1530 1533 1535 1536 1540 1542 1543 1545 1549 1551 1551 1552 1554 1556 1557 1557 1555 1552 1550 1551 1550 1550 1551 1541 1532 1532 1530 1527 1529 1529 1527 1527 1525 1524 1525 1525 1525 1525 1525 1526 1526 1528 1529 1531 1532 1533 1534 1535 1536 1537 1537 1538 1540 1542 1543 1544 1546 1548 1549 1550 1552 1553 1555 1557 1558 1559 1560 1562 1563 1564 1564 1565 1566 1567 1568 1569 1571 1572 1573 1575 1575 1576 1576 1576
1528 1528 1529 1533 1535 1537 1541 1542 1541 1542 1549 1553 1549 1548 1552 1555 1557 1558 1556 1554 1554 1552 1551 1553 1553 1546 1536 1529 1526 1528 1529 1527 1526 1525 1523 1522 1522 1522 1522 1521 1522 1523 1523 1524 1525 1527 1529 1530 1531 1531 1532 1533 1534 1536 1538 1539 1540 1541 1543 1545 1546 1547 1549 1551 1552 1554 1555 1556 1557 1558 1559 1560 1561 1562 1563 1565 1566 1568 1569 1570 1571 1573 1573 1573 1573 1574
1525 1529 1531 1533 1535 1538 1540 1540 1539 1540 1547 1550 1544 1544 1549 1552 1556 1556 1556 1556 1555 1553 1553 1553 1553 1552 1543 1528 1525 1530 1528 1523 1523 1523 1521 1519 1518 1518 1518 1518 1518 1519 1520 1521 1522 1523 1525 1526 1527 1528 1529 1531 1532 1534 1536 1536 1537 1538 1540 1541 1543 1544 1546 1548 1549 1550 1551 1552 1554 1555 1556 1557 1558 1559 1561 1563 1564 1565 1567 1568 1569 1570 1570 1571 1571 1571
1522 1526 1528 1529 1533 1535 1534 1534 1535 1538 1544 1545 1542 1543 1546 1550 1553 1554 1555 1556 1556 1558 1555 1551 1553 1554 1544 1529 1528 1531 1526 1522 1520 1519 1518 1516 1515 1515 1514 1514 1515 1516 1517 1518 1518 1519 1520 1522 1523 1525 1527 1528 1529 1531 1532 1533 1534 1535 1537 1538 1539 1541 1542 1544 1546 1547 1548 1549 1551 1552 1552 1554 1555 1557 1559 1560 1561 1562 1564 1565 1566 1567 1568 1568 1569 1569
1520 1521 1522 1525 1529 1531 1530 1532 1534 1536 1541 1542 1542 1545 1547 1551 1553 1555 1555 1553 1557 1562 1554 1548 1551 1552 1540 1526 1526 1528 1524 1522 1518 1516 1515 1513 1511 1512 1511 1511 1512 1512 1513 1514 1515 1515 1516 1518 1520 1522 1523 1524 1525 1527 1529 1530 1531 1532 1533 1534 1535 1536 1539 1541 1542 1543 1545 1546 1547 1548 1549 1550 1552 1554 1556 1557 1558 1559 1560 1562 1563 1564 1565 1565 1566 1566
1520 1520 1522 1524 1526 1527 1529 1532 1534 1536 1538 1540 1542 1544 1548 1552 1554 1556 1556 1554 1560 1560 1551 1548 1551 1554 1546 1527 1521 1522 1518 1516 1514 1512 1512 1510 1508 1508 1508 1508 1509 1509 1510 1510 1511 1511 1512 1514 1515 1517 1519 1520 1522 1524 1525 1526 1527 1529 1530 1531 1532 1533 1535 1537 1538 1540 1541 1542 1543 1544 1545 1547 1549 1550 1552 1553 1554 1556 1557 1559 1560 1561 1562 1563 1563 1564
1521 1522 1524 1523 1523 1525 1529 1532 1535 1536 1536 1538 1540 1542 1548 1553 1555 1557 1557 1559 1563 1558 1553 1557 1558 1558 1550 1528 1515 1515 1514 1514 1514 1511 1509 1507 1505 1505 1506 1507 1507 1507 1507 1507 1507 1507 1508 1509 1509 1511 1513 1516 1519 1520 1522 1523 1524 1525 1526 1528 1528 1529 1531 1533 1534 1536 1537 1538 1539 1540 1542 1543 1545 1547 1548 1549 1551 1552 1554 1556 1557 1558 1559 1560 1560 1561
1522 1523 1523 1522 1522 1523 1526 1532 1537 1538 1537 1538 1540 1543 1552 1560 1562 1563 1563 1565 1564 1557 1557 1563 1560 1553 1541 1523 1514 1513 1512 1512 1511 1509 1507 1505 1503 1503 1505 1505 1505 1505 1505 1505 1505 1504 1504 1504 1505 1507 1509 1512 1515 1517 1518 1519 1521 1522 1522 1524 1524 1526 1528 1529 1531 1532 1533 1534 1536 1537 1539 1540 1542 1543 1545 1546 1548 1549 1551 1553 1554 1555 1556 1556 1557 1558
1525 1525 1522 1521 1522 1520 1521 1528 1533 1535 1535 1536 1536 1539 1548 1558 1566 1569 1567 1567 1564 1557 1557 1562 1559 1548 1532 1518 1512 1509 1507 1506 1505 1505 1504 1503 1502 1501 1502 1503 1503 1503 1503 1503 1503 1502 1502 1502 1502 1504 1506 1509 1511 1513 1515 1516 1517 1518 1519 1520 1521 1522 1525 1526 1527 1529 1530 1531 1532 1534 1536 1537 1538 1540 1541 1543 1545 1546 1548 1550 1551 1552 1553 1554 1555 1556
1521 1521 1517 1516 1517 1516 1518 1521 1523 1527 1531 1532 1529 1531 1538 1543 1551 1559 1560 1559 1557 1553 1557 1562 1554 1536 1521 1512 1507 1505 1504 1503 1501 1502 1502 1501 1500 1499 1499 1500 1500 1500 1501 1502 1502 1501 1501 1501 1501 1502 1504 1506 1508 1510 1511 1512 1513 1514 1516 1517 1518 1519 1521 1522 1524 1525 1526 1528 1529 1531 1532 1534 1535 1536 1538 1540 1542 1544 1545 1547 1548 1549 1550 1551 1552 1553
1514 1513 1511 1513 1513 1513 1517 1519 1519 1525 1532 1534 1530 1530 1534 1532 1535 1548 1556 1554 1553 1552 1552 1554 1544 1527 1516 1508 1503 1504 1504 1501 1500 1499 1498 1498 1497 1498 1497 1496 1496 1497 1499 1500 1500 1500 1500 1500 1500 1501 1502 1503 1505 1506 1508 1509 1510 1511 1513 1514 1515 1516 1517 1518 1520 1521 1523 1525 1526 1527 1529 1530 1532 1533 1535 1536 1538 1540 1542 1544 1545 1546 1548 1548 1549 1551
1510 1513 1513 1514 1513 1513 1515 1517 1518 1520 1526 1533 1533 1531 1530 1528 1529 1542 1556 1560 1559 1553 1546 1543 1535 1524 1519 1509 1500 1501 1501 1498 1497 1496 1495 1495 1495 1496 1495 1493 1494 1494 1495 1497 1497 1499 1499 1499 1499 1500 1501 1502 1503 1504 1505 1506 1507 1508 1510 1510 1511 1513 1514 1515 1516 1518 1519 1521 1522 1524 1525 1527 1528 1530 1531 1533 1535 1538 1539 1541 1542 1544 1545 1546 1547 1548
1502 1512 1516 1513 1513 1514 1514 1515 1517 1517 1519 1526 1530 1527 1526 1532 1533 1536 1546 1555 1557 1552 1543 1540 1535 1526 1523 1514 1501 1499 1498 1494 1493 1494 1494 1494 1493 1493 1492 1491 1492 1492 1493 1494 1494 1496 1497 1497 1498 1499 1500 1501 1502 1503 1503 1504 1505 1506 1507 1507 1508 1509 1510 1512 1513 1514 1516 1517 1518 1520 1521 1523 1524 1526 1528 1530 1532 1535 1536 1537 1539 1541 1542 1543 1545 1546
1494 1508 1517 1514 1513 1516 1514 1516 1519 1519 1519 1519 1522 1521 1522 1531 1536 1536 1541 1546 1551 1550 1540 1537 1539 1532 1524 1514 1501 1497 1497 1493 1492 1491 1492 1492 1491 1491 1490 1490 1491 1491 1492 1492 1492 1494 1495 1496 1497 1498 1499 1500 1501 1501 1501 1502 1502 1503 1504 1504 1505 1506 1507 1509 1510 1511 1512 1513 1515 1516 1518 1519 1521 1522 1524 1527 1529 1531 1532 1534 1536 1537 1539 1541 1542 1543
1488 1499 1514 1515 1514 1515 1515 1515 1517 1519 1521 1520 1520 1521 1521 1524 1528 1531 1536 1538 1542 1546 1540 1536 1535 1523 1514 1510 1501 1496 1495 1493 1492 1491 1489 1490 1490 1489 1489 1489 1489 1490 1490 1491 1491 1492 1493 1495 1496 1497 1498 1498 1499 1499 1499 1499 1500 1500 1501 1501 1502 1503 1504 1505 1506 1507 1508 1510 1511 1513 1514 1516 1517 1519 1521 1523 1525 1527 1529 1531 1532 1534 1536 1537 1539 1540
1486 1492 1506 1515 1516 1515 1514 1513 1512 1513 1517 1518 1519 1522 1522 1522 1525 1528 1532 1533 1534 1537 1540 1540 1530 1511 1504 1504 1498 1495 1494 1489 1489 1490 1489 1490 1489 1489 1489 1488 1488 1488 1488 1489 1490 1491 1492 1493 1495 1495 1496 1497 1497 1497 1497 1497 1497 1498 1498 1498 1498 1499 1500 1501 1502 1504 1505 1506 1508 1509 1511 1512 1514 1516 1518 1520 1522 1524 1526 1528 1529 1531 1533 1535 1536 1538
1485 1491 1503 1513 1515 1513 1511 1512 1512 1511 1511 1513 1514 1517 1518 1520 1524 1528 1533 1535 1533 1533 1536 1539 1529 1505 1495 1499 1495 1493 1492 1488 1488 1490 1489 1489 1489 1489 1488 1488 1487 1487 1487 1488 1489 1490 1491 1492 1493 1494 1494 1495 1495 1495 1495 1495 1495 1495 1495 1495 1495 1496 1497 1498 1499 1500 1502 1503 1505 1506 1508 1510 1511 1513 1515 1516 1519 1521 1523 1525 1527 1529 1531 1532 1534 1535
1483 1491 1503 1512 1513 1512 1513 1515 1516 1514 1511 1511 1513 1514 1515 1518 1519 1524 1532 1533 1533 1535 1537 1542 1533 1503 1487 1493 1494 1490 1489 1489 1491 1491 1489 1488 1488 1488 1488 1487 1487 1486 1486 1487 1488 1489 1490 1490 1491 1492 1492 1493 1493 1493 1493 1493 1493 1493 1493 1493 1493 1493 1494 1495 1496 1497 1498 1500 1501 1503 1505 1507 1508 1510 1512 1514 1516 1518 1521 1523 1525 1527 1528 1530 1532 1533
1478 1486 1499 1511 1514 1512 1511 1512 1515 1516 1514 1512 1513 1513 1515 1517 1516 1520 1526 1527 1528 1530 1531 1539 1530 1499 1485 1491 1492 1490 1491 1490 1490 1491 1490 1488 1487 1487 1487 1486 1486 1486 1486 1487 1487 1488 1489 1489 1490 1490 1491 1492 1492 1492 1492 1492 1492 1491 1491 1492 1492 1492 1492 1492 1493 1494 1495 1497 1498 1500 1502 1504 1506 1508 1510 1512 1514 1516 1519 1521 1523 1524 1526 1528 1529 1531
1472 1481 1493 1506 1516 1517 1516 1516 1513 1513 1514 1511 1511 1514 1513 1514 1518 1521 1523 1526 1525 1521 1522 1529 1519 1494 1487 1491 1489 1490 1493 1490 1489 1490 1489 1488 1486 1486 1487 1486 1486 1487 1487 1487 1487 1487 1488 1488 1488 1489 1490 1490 1490 1491 1491 1490 1491 1490 1490 1490 1490 1490 1490 1490 1491 1492 1493 1494 1496 1498 1500 1502 1504 1506 1508 1510 1512 1514 1517 1519 1521 1522 1524 1525 1527 1528
1469 1477 1482 1490 1503 1510 1509 1504 1495 1497 1509 1511 1509 1511 1508 1508 1513 1513 1518 1524 1518 1513 1515 1515 1502 1487 1486 1489 1488 1490 1492 1489 1488 1488 1488 1487 1486 1486 1486 1486 1486 1486 1486 1487 1487 1487 1487 1487 1488 1488 1488 1489 1489 1489 1489 1489 1489 1489 1489 1489 1488 1488 1489 1489 1489 1490 1491 1493 1494 1496 1498 1500 1502 1504 1506 1508 1511 1513 1515 1517 1519 1520 1521 1523 1525 1527
1468 1474 1474 1474 1480 1480 1478 1478 1476 1483 1498 1502 1502 1505 1506 1506 1507 1508 1515 1515 1506 1509 1510 1497 1487 1488 1489 1488 1488 1488 1489 1488 1487 1486 1486 1486 1485 1486 1486 1486 1486 1486 1486 1486 1486 1487 1487 1487 1487 1487 1487 1488 1488 1488 1488 1488 1488 1487 1487 1487 1487 1487 1487 1488 1488 1489 1490 1491 1493 1495 1497 1499 1501 1503 1505 1508 1509 1512 1513 1515 1516 1518 1519 1521 1523 1526
1466 1471 1471 1469 1469 1467 1468 1473 1476 1480 1486 1489 1495 1503 1504 1506 1507 1508 1508 1500 1496 1507 1505 1488 1486 1492 1490 1488 1487 1486 1486 1487 1486 1485 1485 1485 1485 1486 1485 1486 1486 1486 1486 1486 1486 1487 1487 1487 1487 1486 1486 1486 1486 1486 1486 1486 1486 1486 1486 1486 1486 1486 1487 1487 1488 1488 1489 1490 1492 1493 1495 1497 1500 1502 1504 1506 1508 1509 1511 1512 1514 1516 1518 1520 1522 1524
1459 1463 1464 1466 1469 1471 1474 1477 1477 1479 1483 1487 1494 1499 1501 1505 1506 1504 1498 1490 1492 1498 1490 1483 1487 1489 1487 1487 1485 1485 1485 1484 1483 1485 1485 1485 1485 1485 1485 1486 1486 1486 1486 1485 1485 1485 1485 1485 1485 1485 1485 1485 1485 1485 1484 1484 1484 1484 1484 1485 1485 1485 1486 1486 1487 1487 1488 1489 1490 1492 1494 1496 1499 1500 1502 1504 1505 1507 1508 1510 1512 1514 1516 1518 1520 1523
1453 1458 1462 1466 1470 1475 1481 1483 1480 1480 1484 1489 1493 1496 1499 1501 1499 1495 1488 1486 1492 1490 1480 1483 1490 1488 1488 1488 1484 1484 1484 1483 1484 1485 1484 1485 1485 1485 1485 1485 1485 1484 1483 1482 1483 1483 1483 1483 1483 1483 1483 1483 1483 1483 1482 1482 1483 1483 1483 1484 1484 1484 1485 1485 1485 1486 1487 1488 1489 1491 1493 1494 1496 1498 1499 1501 1503 1505 1507 1509 1511 1513 1515 1517 1519 1521
1452 1460 1466 1468 1474 1480 1484 1486 1485 1484 1484 1487 1491 1495 1497 1496 1493 1490 1486 1490 1496 1490 1484 1491 1493 1487 1486 1486 1483 1483 1483 1483 1484 1482 1481 1483 1484 1484 1484 1483 1483 1482 1481 1480 1480 1480 1480 1481 1481 1481 1481 1481 1481 1481 1481 1481 1481 1481 1481 1482 1482 1483 1483 1483 1484 1484 1485 1486 1487 1489 1491 1492 1494 1496 1497 1499 1501 1503 1506 1508 1509 1512 1514 1516 1518 1520
1453 1463 1468 1469 1475 1482 1485 1488 1490 1488 1487 1489 1491 1492 1490 1488 1487 1487 1487 1490 1490 1486 1489 1496 1488 1479 1481 1482 1480 1481 1482 1482 1481 1479 1480 1481 1482 1483 1482 1481 1481 1480 1479 1479 1478 1478 1478 1478 1478 1478 1478 1479 1479 1479 1479 1479 1479 1479 1480 1480 1480 1481 1481 1481 1482 1483 1484 1485 1486 1488 1489 1491 1493 1494 1496 1498 1500 1502 1504 1506 1508 1510 1512 1514 1516 1518
1452 1459 1464 1468 1473 1480 1489 1491 1487 1487 1492 1490 1480 1473 1475 1480 1483 1485 1485 1483 1481 1482 1487 1486 1475 1470 1475 1477 1477 1480 1480 1479 1477 1477 1478 1478 1479 1481 1480 1479 1478 1477 1477 1477 1476 1476 1476 1476 1476 1476 1476 1477 1477 1477 1477 1477 1477 1478 1478 1478 1478 1479 1479 1480 1481 1482 1483 1484 1485 1486 1488 1489 1491 1493 1495 1496 1498 1501 1503 1505 1507 1509 1510 1512 1514 1516
1452 1454 1461 1465 1467 1481 1494 1489 1484 1492 1492 1475 1456 1452 1462 1472 1476 1478 1474 1471 1473 1475 1472 1468 1465 1469 1473 1472 1473 1474 1473 1472 1472 1473 1475 1476 1477 1477 1475 1475 1475 1474 1474 1474 1474 1474 1474 1474 1474 1474 1474 1475 1474 1475 1475 1475 1475 1476 1476 1476 1476 1477 1477 1478 1479 1480 1481 1482 1484 1485 1486 1488 1489 1491 1493 1495 1497 1499 1501 1503 1505 1507 1508 1510 1512 1513
1448 1453 1461 1463 1466 1482 1491 1485 1487 1492 1475 1451 1445 1449 1456 1460 1463 1464 1461 1460 1465 1467 1465 1465 1466 1467 1468 1466 1465 1466 1466 1468 1469 1470 1472 1474 1474 1472 1471 1470 1471 1471 1471 1471 1471 1472 1472 1472 1472 1472 1472 1472 1472 1472 1473 1473 1473 1473 1473 1474 1474 1474 1475 1476 1477 1478 1479 1481 1482 1483 1484 1486 1487 1489 1491 1493 1495 1496 1498 1500 1502 1504 1506 1507 1509 1511
1438 1446 1456 1463 1471 1482 1485 1479 1477 1472 1456 1446 1450 1454 1454 1456 1459 1463 1463 1461 1462 1465 1466 1464 1461 1461 1463 1461 1460 1462 1465 1467 1468 1467 1468 1470 1470 1468 1467 1466 1467 1468 1468 1468 1469 1469 1470 1470 1470 1470 1470 1470 1470 1470 1470 1470 1471 1470 1470 1471 1471 1472 1473 1474 1475 1476 1477 1479 1480 1481 1482 1484 1485 1487 1488 1490 1492 1493 1495 1497 1499 1501 1503 1505 1507 1509
1432 1438 1446 1460 1471 1473 1474 1473 1466 1461 1456 1447 1443 1444 1447 1449 1453 1460 1463 1458 1453 1457 1458 1455 1454 1458 1458 1456 1458 1462 1465 1468 1466 1463 1464 1467 1465 1463 1463 1464 1465 1465 1465 1466 1466 1466 1467 1467 1467 1467 1467 1467 1467 1468 1468 1468 1468 1468 1468 1468 1468 1469 1470 1471 1472 1474 1475 1476 1477 1479 1480 1481 1483 1484 1486 1487 1489 1490 1492 1494 1496 1499 1501 1503 1505 1507
1433 1435 1436 1449 1467 1469 1469 1471 1470 1468 1457 1438 1431 1435 1439 1442 1446 1453 1458 1453 1443 1444 1448 1448 1450 1453 1452 1453 1458 1462 1466 1469 1464 1458 1459 1461 1459 1459 1462 1462 1462 1462 1462 1462 1462 1462 1463 1464 1463 1463 1463 1463 1464 1465 1465 1465 1465 1465 1465 1465 1466 1466 1467 1468 1470 1471 1472 1473 1475 1477 1478 1479 1481 1482 1483 1485 1486 1488 1491 1493 1495 1497 1499 1501 1503 1505
1436 1438 1433 1443 1461 1465 1459 1460 1464 1460 1444 1428 1428 1434 1436 1439 1442 1450 1461 1451 1432 1431 1440 1441 1444 1447 1447 1450 1455 1460 1465 1467 1459 1453 1454 1455 1455 1458 1460 1458 1458 1459 1459 1459 1459 1459 1459 1460 1459 1460 1460 1460 1461 1462 1461 1462 1462 1462 1462 1463 1464 1464 1464 1466 1467 1468 1469 1471 1473 1475 1476 1477 1479 1480 1482 1484 1485 1487 1490 1492 1494 1496 1498 1500 1502 1504
1436 1439 1439 1444 1453 1453 1451 1453 1455 1447 1433 1425 1428 1430 1433 1434 1438 1453 1463 1444 1421 1424 1433 1434 1437 1441 1442 1446 1452 1456 1459 1457 1452 1450 1450 1451 1453 1455 1456 1455 1456 1457 1456 1456 1457 1456 1457 1457 1457 1457 1457 1457 1458 1458 1458 1459 1459 1459 1460 1460 1461 1461 1462 1464 1465 1466 1468 1469 1471 1473 1474 1475 1477 1479 1481 1483 1485 1487 1489 1491 1493 1495 1496 1498 1500 1502
1438 1438 1440 1442 1445 1449 1449 1449 1446 1437 1425 1423 1426 1425 1428 1433 1440 1448 1443 1423 1415 1423 1426 1426 1432 1435 1436 1442 1448 1449 1448 1446 1446 1447 1448 1449 1451 1451 1452 1453 1454 1454 1454 1454 1455 1454 1455 1455 1454 1455 1455 1455 1455 1455 1456 1456 1456 1457 1458 1458 1458 1460 1461 1462 1463 1464 1465 1467 1468 1470 1471 1473 1475 1477 1479 1481 1483 1486 1488 1489 1491 1493 1494 1496 1498 1500
1431 1434 1438 1438 1441 1446 1446 1444 1445 1434 1415 1413 1424 1426 1425 1430 1433 1427 1416 1411 1417 1422 1422 1426 1430 1431 1434 1439 1440 1441 1441 1442 1444 1446 1447 1447 1448 1449 1450 1451 1451 1452 1453 1452 1453 1453 1453 1453 1453 1453 1453 1453 1454 1454 1454 1455 1455 1455 1456 1456 1457 1458 1459 1460 1461 1462 1463 1464 1465 1467 1468 1470 1472 1474 1476 1478 1480 1483 1485 1486 1489 1490 1492 1494 1496 1498
1413 1422 1431 1433 1434 1440 1444 1445 1443 1426 1401 1401 1420 1427 1421 1416 1412 1409 1410 1415 1419 1419 1422 1426 1427 1428 1432 1434 1435 1437 1439 1441 1443 1445 1445 1446 1447 1447 1448 1449 1450 1451 1451 1451 1451 1451 1451 1452 1452 1452 1452 1452 1453 1453 1453 1454 1454 1454 1455 1455 1456 1457 1457 1458 1458 1459 1460 1461 1463 1464 1466 1468 1470 1471 1473 1476 1478 1480 1482 1484 1487 1489 1491 1493 1495 1496
1403 1407 1415 1417 1417 1422 1428 1426 1419 1406 1396 1398 1407 1410 1410 1408 1406 1407 1412 1416 1418 1419 1422 1424 1425 1427 1430 1430 1433 1435 1436 1438 1441 1442 1443 1444 1445 1446 1447 1447 1448 1448 1448 1449 1449 1449 1450 1450 1450 1450 1451 1451 1451 1452 1452 1452 1452 1452 1453 1453 1454 1454 1455 1455 1456 1457 1458 1459 1460 1462 1464 1465 1467 1469 1471 1474 1476 1478 1481 1483 1485 1487 1489 1491 1492 1494
1393 1392 1396 1399 1401 1403 1405 1403 1400 1399 1400 1400 1398 1400 1405 1408 1409 1409 1411 1413 1416 1419 1420 1421 1423 1425 1426 1428 1431 1432 1434 1437 1439 1439 1441 1443 1443 1444 1445 1445 1446 1446 1446 1447 1447 1448 1449 1449 1449 1449 1449 1449 1450 1449 1449 1450 1450 1450 1450 1451 1451 1452 1452 1453 1453 1454 1455 1456 1457 1459 1461 1463 1465 1467 1469 1471 1473 1475 1478 1480 1482 1484 1485 1487 1489 1490
1390 1390 1391 1393 1399 1402 1400 1398 1400 1401 1400 1400 1401 1403 1405 1407 1409 1410 1411 1413 1415 1416 1418 1420 1421 1422 1424 1426 1428 1429 1432 1435 1436 1438 1440 1440 1441 1443 1443 1443 1444 1444 1445 1446 1446 1447 1447 1447 1447 1448 1447 1448 1448 1447 1448 1448 1448 1448 1448 1449 1449 1449 1449 1450 1451 1451 1452 1453 1455 1456 1458 1460 1462 1464 1466 1469 1471 1473 1475 1476 1478 1480 1481 1483 1485 1486
1391 1391 1392 1394 1400 1402 1397 1394 1397 1400 1400 1401 1402 1403 1404 1406 1408 1409 1410 1412 1414 1415 1417 1418 1419 1421 1423 1424 1425 1428 1430 1432 1434 1436 1437 1438 1440 1441 1441 1442 1442 1442 1443 1445 1445 1445 1446 1446 1446 1446 1446 1446 1446 1446 1447 1447 1447 1447 1447 1446 1446 1447 1447 1447 1448 1448 1449 1450 1451 1453 1455 1456 1459 1461 1463 1465 1467 1469 1472 1474 1476 1477 1478 1479 1481 1482
1385 1388 1393 1396 1398 1397 1393 1392 1396 1398 1399 1400 1400 1401 1403 1405 1406 1408 1411 1412 1413 1414 1415 1416 1418 1420 1420 1422 1424 1426 1427 1430 1432 1433 1434 1436 1437 1438 1438 1439 1440 1440 1442 1442 1443 1443 1444 1444 1444 1444 1444 1444 1444 1444 1445 1445 1445 1445 1445 1444 1445 1444 1444 1445 1445 1445 1447 1447 1448 1450 1451 1453 1455 1457 1459 1461 1463 1465 1468 1469 1471 1473 1474 1476 1478 1479
1380 1383 1387 1389 1392 1393 1391 1392 1396 1398 1399 1399 1399 1400 1402 1404 1406 1408 1410 1410 1411 1413 1414 1415 1416 1417 1418 1420 1422 1423 1425 1427 1429 1430 1432 1433 1434 1435 1436 1437 1438 1439 1440 1440 1441 1441 1441 1441 1442 1442 1441 1442 1442 1442 1443 1443 1443 1443 1442 1442 1443 1442 1442 1443 1443 1443 1444 1445 1445 1447 1448 1450 1451 1453 1455 1457 1459 1462 1464 1466 1467 1469 1471 1474 1476 1477
1376 1377 1380 1385 1388 1386 1383 1384 1389 1393 1395 1396 1397 1399 1401 1402 1404 1406 1407 1408 1410 1411 1412 1413 1414 1415 1417 1418 1419 1421 1423 1424 1426 1428 1429 1430 1432 1433 1434 1435 1436 1437 1437 1438 1439 1439 1439 1440 1440 1439 1440 1440 1440 1440 1441 1441 1441 1441 1441 1441 1440 1440 1440 1441 1441 1441 1442 1442 1443 1444 1445 1446 1448 1450 1452 1454 1456 1458 1460 1462 1464 1466 1468 1470 1472 1474
1365 1366 1371 1376 1377 1374 1373 1378 1383 1385 1387 1390 1392 1395 1398 1399 1401 1403 1404 1406 1408 1409 1410 1412 1412 1414 1415 1416 1418 1419 1420 1422 1424 1425 1426 1428 1430 1430 1431 1433 1434 1434 1435 1436 1437 1437 1438 1438 1437 1438 1438 1437 1438 1438 1438 1439 1439 1439 1439 1439 1439 1439 1439 1439 1439 1439 1439 1440 1441 1442 1443 1444 1445 1447 1449 1451 1452 1455 1456 1458 1460 1462 1464 1466 1468 1469